Location: Iwkowa
(49.8210°N, 20.5761°E)
Time: 16:45:06
(UTC+02:00)

ISS - Pass Details

Date: 25 January 2019
Orbit: 411 x 421 km, 51.6° (Epoch: 21 October)

Event Time Altitude Azimuth Distance (km) Brightness Sun altitude
Rises 18:16:36 0° 242° (WSW) 2,411 1.4 -18.6°
Reaches altitude 10° 18:18:43 10° 240° (WSW) 1,547 0.1 -18.9°
Maximum altitude 18:22:11 68° 158° (SSE) 478 -3.7 -19.4°
Enters shadow 18:22:22 66° 133° (SE) 484 -3.7 -19.5°
